Location: Seattle
(47.6064°N, 122.3308°W)
Time: 12:11:38
(UTC-07:00)

SEEDS - Pass Details

Date: 08 April 2023
Orbit: 568 x 587 km, 97.7° (Epoch: 30 May)

Event Time Altitude Azimuth Distance (km) Brightness Sun altitude
Rises 04:31:37 0° 22° (NNE) 2,836 ? -19.7°
Reaches altitude 10° 04:34:00 10° 33° (NNE) 1,929 ? -19.3°
Maximum altitude 04:37:44 31° 95° (E) 1,049 ? -18.8°
Drops below altitude 10° 04:41:26 10° 159° (SSE) 1,908 ? -18.3°
Enters shadow 04:42:43 - 166° (SSE) 2,388 ? -18.1°
